Regional Weather Roundup
Issued by NWS Upton, NY

Current Version | Previous Version | Graphics & Text | Print | Product List | Glossary Off
Versions: 1 2 3 4 5 6 7 8 9 10 11 12 13 14 15 16 17 18 19 20 21 22 23 24 25 26 27 28 29 30 31 32 33 34 35 36 37 38 39 40 41 42 43 44 45 46 47 48 49 50
000 ASUS41 KOKX 282204 RWROKX REGIONAL WEATHER ROUNDUP NATIONAL WEATHER SERVICE NEW YORK NY 600 PM EDT SUN AUG 28 2016 NOTE: "FAIR" INDICATES FEW OR NO CLOUDS BELOW 12,000 FEET WITH NO SIGNIFICANT WEATHER AND/OR OBSTRUCTIONS TO VISIBILITY. NYZ071-072-176-178-NJZ106-104-282300- NEW YORK CITY METRO AREA CITY SKY/WX TMP DP RH WIND PRES REMARKS Central Park SUNNY 81 61 50 VRB3 30.20S LaGuardia APRT MOSUNNY 83 60 45 SE14 30.16F Kennedy INTL MOSUNNY 80 60 50 SE10 30.18F Newark/Liberty MOSUNNY 81 62 52 SE13 30.17S Bronx Bot Gard N/A 82 57 42 S9 30.19F Wall St Helipt CLEAR 84 63 48 S7 30.18S Teterboro SUNNY 84 59 42 S12 30.15S $$ NYZ177-179-078>081-282300- LONG ISLAND NEW YORK CITY SKY/WX TMP DP RH WIND PRES REMARKS Farmingdale SUNNY 79 64 60 SE12 30.19F MacArthur/ISP MOSUNNY 78 63 59 S12 30.18F Shirley SUNNY 77 62 59 SE12 30.20F Riverhead NOT AVBL Westhampton SUNNY 77 61 57 S9 30.21F Southampton N/A 75 66 73 S9 30.16F Bridgehampton N/A 73 64 73 S2 30.19F East Hampton FAIR 75 63 66 S8 30.19F Montauk N/A 75 62 64 S7 30.21F $$ NYZ052-065-067-282300- HUDSON VALLEY CITY SKY/WX TMP DP RH WIND PRES REMARKS White Plains SUNNY 82 58 43 S9 30.17F Newburgh SUNNY 84 66 54 SW14 30.18S Montgomery SUNNY 85 65 51 SW12 30.15F Poughkeepsie SUNNY 85 64 49 S6 30.14S Albany MOSUNNY 85 63 47 S14 30.10F $$ NJZ001-105-106-008-010-013-015-019>022-104-282300- NEW JERSEY CITY SKY/WX TMP DP RH WIND PRES REMARKS Newark/Liberty MOSUNNY 81 62 52 SE13 30.17S Teterboro SUNNY 84 59 42 S12 30.15S Caldwell SUNNY 85 62 46 S9 30.16S Morristown MOSUNNY 84 64 51 SE10G17 30.16S Somerville SUNNY 87 63 44 VRB3 30.14F Linden FAIR 83 61 46 SE10 30.18S Sussex SUNNY 84 65 52 SW5 30.17F Abdover N/A 84 65 52 CALM 30.18S Trenton SUNNY 87 63 44 S6 30.15F Millville SUNNY 84 64 50 SE7 30.17F Atlantic City SUNNY 81 64 56 E9 30.17F Wrightstown NOT AVBL Toms River SUNNY 81 65 58 SE7 30.18F Belmar SUNNY 80 65 59 SE8 30.19F $$ PAZ047>061-062-071-282300- EASTERN PENNSYLVANIA CITY SKY/WX TMP DP RH WIND PRES REMARKS Philadelphia MOSUNNY 89 64 43 W8 30.16S HX 90 Allentown SUNNY 88 61 40 W5 30.16F Scranton SUNNY 84 65 52 S8 30.18S $$ CTZ002-004>006-009-010-012-RIZ004-006-007-MAZ004-011-015-282300- SOUTHERN NEW ENGLAND IN CT CITY SKY/WX TMP DP RH WIND PRES REMARKS Bradley INTL MOSUNNY 85 61 44 S10 30.15F Hartford SUNNY 86 63 45 S12 30.15S Danbury SUNNY 80 65 59 SE6 30.18F Wtrbury/Oxford MOSUNNY 81 63 54 S10 30.22F Bridgeport SUNNY 82 64 54 SE6 30.17F Meriden SUNNY 83 60 45 S10 30.17S New Haven MOSUNNY 82 62 50 S9 30.18F Chester FAIR 79 63 57 S7 30.20S Groton SUNNY 76 66 71 S9 30.19F Wilimantic SUNNY 82 60 47 S9 30.18F IN RI CITY SKY/WX TMP DP RH WIND PRES REMARKS Providence MOSUNNY 78 59 51 S15 30.19F Block Island SUNNY 75 62 64 S9 30.20F Westerly SUNNY 76 61 59 S9 30.20F IN MA CITY SKY/WX TMP DP RH WIND PRES REMARKS Boston CLOUDY 76 63 64 SE12 30.16F Worcester SUNNY 79 59 50 SW10 30.20F Westfield SUNNY 85 63 47 S14 30.14S Provincetown NOT AVBL Nantucket SUNNY 69 64 84 SE10 30.20F $$ ANZ330-335-338-340-345-350-353-355-282300- COASTAL MARINE OBSERVATIONS STATION/POSITION TIME SKY/WX TEMP WIND PRES VSBY WAVE AIR SEA DIR/SP/G HT/PER (UTC) (F) (DEG/KT/KT) (MB) (MI) (FT/S) NY HARB ENTRANCE 2050 76 77 140/ 12/ 14 1022.2 2/ 9 20S FIRE ISLAND 2050 75 77 130/ 8/ 10 1022.5 3/ 8 GREAT SOUTH BAY NOT AVBL 23 SSW MONTAUK P 2050 74 78 160/ 6/ 8 1023.5 2/15 15 E BARNEGAT LI 2100 78 N/A 3/ 8 HUDSON CANYON 2050 76 79 1022.4 3/ 8 KINGS POINT 2100 81 78 1021.6 EXECUTION ROCKS 2100 83 170/ 8/ 12 N/A CENTRAL LI SOUND 2115 78 78 160/ 14/ 16 N/A 1 EASTERN LI SOUND 2100 76 74 160/ 8/ 10 N/A ROBBINS REEF 2100 76 170/ 18/ 20 1021.3 $$ >>>>>>>>>>>>>>>>>>>>>>>>>>>> KEY <<<<<<<<<<<<<<<<<<<<<<<<<<< > < > SKY/WX - Sky Condition/Present Weather < > TMP - Temperature in Fahrenheit < > DP - Dew Point in Fahrenheit < > RH - Relative Humidity in Percent < > WIND - Direction (from) and Speed in MPH < > PRES - Mean Sea Level Pressure (inches of Hg) < > WCI - Wind Chill Index < > VSB - VISIBILITY IN MILES < > HX - HEAT INDEX < > TC - TEMPERATURE IN CELSIUS < > VRB - VARIABLE WIND DIRECTION < > < >>>>>>>>>>>>>>>>>>>>>>>>>>>> KEY <<<<<<<<<<<<<<<<<<<<<<<<<<<

USA.gov is the U.S. government's official web portal to all federal, state and local government web resources and services.